Location: Knowlton
(51.2333°N, 1.2667°E)
Time: 09:03:21
(UTC+00:00)

Cosmos 1386 Rocket - Pass Details

Date: 18 April 2021
Orbit: 928 x 1007 km, 83.0° (Epoch: 05 May)

Event Time Altitude Azimuth Distance (km) Brightness Sun altitude
Rises 22:25:01 0° 350° (N) 3,627 8.8 -24.7°
Reaches altitude 10° 22:27:32 10° 352° (N) 2,669 7.8 -24.8°
Maximum altitude 22:33:37 77° 79° (ENE) 961 4.3 -25.2°
Enters shadow 22:34:39 62° 144° (SE) 1,046 4.3 -25.3°
